Reflectivity
-20 -20 -20 -20 -20 -20 -20 -20 -20 -20 -20 -20 -20 -20 -20 -20 -20 -20 -20 -20 -20 -20 -20 -20 -20 -20 0 -0 -3 7 -20 -20 -8 -20 -20 -20 -3 -20 -20 -3 -12 -20 -20 -20
-20 -20 -20 -20 -20 -20 -20 -20 -20 -20 -20 -20 -20 -20 -20 -20 -20 -20 -20 -20 -20 -20 -20 -20 -20 -20 -20 -20 -2 -7 -16 -20 -5 23 27 35 23 12 -10 -20 -14 -11 6 10
-20 -20 -20 -20 -20 -20 -20 -20 -20 -20 -20 -20 -20 -20 11 -12 -20 -20 -20 -20 -20 -20 -20 -20 -20 -20 -20 -20 -20 -20 -17 -13 -20 -5 -20 -15 -14 16 20 13 13 -18 -15 -10
-20 -20 -20 -20 -20 -20 -20 -20 -20 -20 -20 -20 -20 -20 -20 -8 -20 -20 -20 -20 -20 -20 -20 -20 -20 -20 -20 -20 -20 -20 -20 -20 -20 -20 3 6 1 -15 -5 0 7 -20 -20 -20
-20 -20 -20 -20 -20 -20 -20 -20 -20 -20 -20 -20 -20 -20 -20 -20 -20 -20 -20 -20 -20 -20 -20 -20 -20 -20 -20 -20 -20 -20 -20 -20 -20 -20 -20 -17 -0 -20 -20 -15 -5 -9 -4 -6
-20 -20 -20 -20 -20 -20 -20 -20 -20 -20 -20 -20 -20 -20 -20 -20 -20 -20 -20 -20 -20 -20 -20 -20 -20 -20 -20 -20 -20 -20 -20 -20 -20 -20 -20 -20 -20 -20 -20 -11 -9 -9 -3 10
-20 -20 -20 -20 -20 -20 -20 -20 -20 -20 -20 -20 -20 -20 -20 -20 -15 -20 -20 -20 -20 -20 -20 -20 -20 -20 -20 -20 -20 -20 -20 -20 -20 -20 -20 -20 -20 -20 -20 -20 -20 -20 -20 -20
-20 -20 -20 -20 -20 -20 -20 -20 -20 -20 -20 -20 -20 -20 -20 -20 -20 -20 -20 -20 -20 -20 -20 -20 -20 -20 -20 -20 -20 -20 -20 -20 -20 -20 -20 -20 -20 -20 -20 -20 -20 -20 -20 -20
-20 -20 -20 -20 -20 -20 -20 -20 -20 -20 -20 -20 -20 -20 -20 -20 -20 -20 -20 -20 -20 -20 -20 -20 -20 -20 -20 -20 -20 -20 -20 -20 -20 -20 -20 -20 -20 -20 -20 -20 -20 -20 -20 -20
-20 -20 -20 -20 -20 -20 -20 -15 -17 -20 -8 -20 -20 -20 -20 -20 -20 -20 -20 -20 -20 -20 -20 -20 -20 -20 -20 -20 -20 -20 -20 -20 -20 -20 -20 -20 -20 -20 -20 -20 -20 -20 -20 -20
-20 -20 -20 -20 -20 -20 -20 -20 -20 -20 -20 -20 -20 -20 2 -16 -20 -20 -20 -20 -20 -20 -20 -20 -20 -20 -20 -20 -20 -20 -20 -20 -20 -20 -20 -20 -20 -20 -20 -20 -20 -20 -20 -20
-20 -20 -20 -20 -20 -20 -20 -20 -20 -20 -20 -20 -20 -20 -4 -20 -20 -20 -20 -20 -20 -20 -20 -20 -20 -20 -20 -20 -20 -20 -20 -20 -20 -20 -20 -20 -20 -20 -20 -20 -20 -20 -20 -20
-20 -20 -20 -20 -20 -20 -20 -20 -20 -20 -20 -20 11 -13 -20 -20 -20 -20 -20 -20 -20 -20 -20 -20 -20 -20 -20 -20 -20 -20 -20 -20 -20 -20 -20 -20 -20 -20 -20 -20 -20 -20 -20 -20
-20 -20 -20 -20 -20 -20 -20 -20 -20 -20 -20 -20 -20 -20 -20 -20 -20 -20 -20 -20 -20 -20 -20 -20 -20 -20 -20 -20 -20 -20 -20 -20 -20 -20 -20 -20 -20 -20 -20 -19 -20 -20 -20 -20
-20 -20 -20 -20 -20 -7 -20 -20 -20 -20 -20 -20 -20 -20 -20 -20 -20 -20 -20 -20 -20 -20 -20 -20 -20 -20 -20 -20 -20 -20 -20 -20 -20 -20 -20 -20 -20 -20 -20 -20 -20 -20 -20 -20
-20 -20 -20 -20 -20 -20 -0 -20 -20 -20 -20 -20 -20 -20 -20 -20 -20 -20 -20 -20 -20 -20 -20 -20 -20 -20 -20 -20 -20 -20 -20 -20 -20 -20 -20 -20 -20 -20 -20 -20 -20 -20 -20 -20
-20 9 -11 -20 -20 -20 -20 -20 -20 -20 -20 -20 -20 -20 -20 -20 -20 -20 -20 -20 -20 -20 -20 -20 -20 -20 -20 -20 -20 -20 -20 -20 -20 -20 -20 -20 -20 -20 -20 -20 -20 -20 -20 -20
-10 -10 -20 4 -20 4 -20 -20 -20 -20 -20 -20 -20 -20 -20 -20 -20 -20 -20 -20 -20 -20 -20 -20 -20 -20 -20 -20 -20 -20 -20 -20 -20 -20 -20 -20 -20 -20 -20 -20 -20 -20 -20 -20
15 11 13 15 -18 -20 -20 -20 -20 -20 -20 -20 -20 -20 -20 -10 -20 -20 -20 -20 -20 -20 -20 -20 -20 -20 -20 -20 -20 -20 -20 -20 -20 -20 -20 -20 -20 -20 -20 -20 -20 -20 -20 -20
20 7 20 18 9 10 -20 -20 -20 -20 -20 -20 -20 -20 -7 -4 -20 -20 -20 -20 -20 -20 -20 -20 -20 -20 -20 -20 -20 -20 -20 -20 -20 -20 -20 -20 -20 -20 -20 -20 -20 -20 -20 -20
15 20 16 9 9 -11 -17 -18 -20 -20 -20 -20 -20 -20 4 -16 -20 -20 -14 -20 -20 -20 -20 -20 -20 -20 -20 -20 -20 -20 -20 -20 -20 -20 -20 -20 -20 -20 -20 -20 -20 -20 -20 -20
22 13 19 15 17 18 14 -8 -2 -19 -20 -20 -20 -20 -20 -20 -20 -20 -20 -20 -20 -20 -20 -20 -20 -20 -20 -20 -20 -20 -20 -20 -20 -20 -20 -20 -20 -20 -20 -20 -20 -20 -20 -20
27 20 11 14 30 8 27 8 1 -20 -20 -20 -20 -20 -20 -20 -20 -20 -20 -20 -20 -20 -20 -20 -20 -20 -20 -20 -20 -20 -20 -20 -20 -20 -20 -20 -20 -20 -20 -20 -20 -20 -20 -20
-17 -0 4 6 17 32 13 1 -20 -20 -20 -20 -20 -20 -20 -20 -20 -20 -20 -20 -20 -20 -20 -20 -20 -20 -20 -20 -20 -20 -20 -20 -20 -20 -20 -20 -20 -20 -20 -20 -20 -20 -20 -20
-6 -9 13 -3 18 26 40 2 6 -19 -20 -20 -20 -20 -20 -20 -20 -20 -20 -20 -20 -20 -20 -20 -20 -20 -20 -20 -20 -20 -20 -20 -20 -20 -20 -20 -20 -20 -20 -20 -20 -20 -20 -20
17 11 13 14 14 24 29 21 -4 -20 -20 -20 -20 -20 -20 -20 -20 -20 -20 -20 -20 -20 -20 -20 -20 -20 -20 -20 -20 -20 -20 -20 -20 -20 -20 -20 -20 -20 -20 -20 -20 -20 -20 -20
Wind_Speed
20 17 20 23 23 22 18 22 23 23 19 20 21 19 19 18 18 19 18 18 18 19 16 15 15 16 14 13 11 8 7 7 5 3 5 6 6 6 7 6 10 10 9 9
16 22 20 20 20 22 22 19 23 17 21 20 22 24 22 18 18 19 20 21 20 18 18 16 15 15 15 14 13 11 9 8 8 7 5 7 5 7 6 7 7 8 8 9
19 16 21 21 19 20 21 18 21 15 13 13 19 22 17 20 17 18 19 18 19 20 19 17 17 15 15 15 15 14 12 10 5 8 9 6 7 6 5 6 7 8 9 10
21 17 21 19 22 19 18 17 18 17 13 15 23 15 21 20 18 20 20 21 19 20 18 18 17 17 16 14 14 14 14 12 9 7 7 7 5 6 5 6 7 7 9 9
20 20 17 22 18 18 16 16 18 17 17 17 24 17 13 24 22 22 23 22 20 20 20 19 18 17 16 15 14 14 14 13 11 9 10 7 8 7 5 6 8 7 6 8
21 15 16 20 17 18 20 15 14 12 13 17 21 20 18 19 25 25 23 23 22 22 21 19 18 17 16 15 16 15 15 13 12 10 10 10 10 10 7 7 6 5 5 6
21 20 14 15 22 21 22 15 11 13 14 12 20 18 14 15 20 26 25 24 24 22 21 20 20 18 17 16 16 14 15 14 13 12 10 10 10 10 10 9 6 7 5 4
17 21 23 20 22 22 24 21 13 19 16 15 16 17 17 20 3 15 20 24 24 23 20 21 21 19 18 17 17 16 16 14 14 13 11 10 12 8 8 7 8 6 6 6
20 21 24 17 19 22 19 24 23 13 18 14 17 14 1 8 14 14 18 21 23 24 23 23 22 19 18 18 17 16 16 15 14 13 12 11 11 11 9 10 8 7 8 7
20 12 19 23 18 24 23 19 19 16 11 17 16 23 15 14 15 19 17 18 18 24 23 22 21 21 18 17 16 16 16 16 15 14 12 11 11 10 11 10 9 9 8 10
22 9 16 18 23 26 21 20 19 17 13 14 13 12 11 15 20 19 20 20 18 20 23 22 21 20 19 18 17 16 15 16 15 14 13 12 12 11 11 9 10 9 9 9
24 10 15 26 22 23 23 24 25 11 20 10 10 7 5 8 11 13 20 18 18 18 21 22 21 22 20 19 18 17 16 16 15 15 14 13 12 12 11 10 10 10 9 9
10 18 14 18 18 22 26 28 23 24 11 19 12 7 6 5 6 8 14 18 16 17 20 21 22 21 20 19 18 18 17 16 16 15 15 14 13 13 12 11 10 10 10 9
7 13 22 16 18 18 22 23 26 23 16 17 17 16 14 12 13 10 12 14 16 20 21 21 21 22 21 20 19 19 18 17 17 16 16 15 14 13 12 11 11 11 10 10
7 17 22 24 23 18 22 23 24 26 27 21 18 23 18 18 16 13 12 15 17 19 21 22 23 22 22 21 20 19 19 18 18 17 17 16 15 14 13 13 12 11 10 10
11 12 20 20 23 27 19 22 25 26 25 25 25 20 20 18 17 15 14 17 19 21 23 23 23 24 24 23 21 20 19 19 18 18 17 16 16 15 14 13 13 12 11 10
9 10 12 17 24 23 25 19 23 26 25 24 23 21 18 18 18 16 16 17 20 21 22 23 24 23 23 23 22 21 20 19 19 18 17 17 16 15 15 14 13 13 12 10
9 11 7 8 17 26 15 22 21 17 22 23 24 21 25 17 13 16 18 18 19 21 21 21 20 20 22 22 22 20 20 19 19 19 18 17 17 16 15 15 14 13 11 11
12 6 5 6 13 15 22 21 25 18 18 19 24 23 19 17 15 19 19 17 18 20 20 19 19 20 21 23 22 22 21 20 20 20 19 19 18 17 16 15 13 13 11 11
15 12 7 6 10 19 17 22 22 24 18 18 18 16 14 13 15 12 16 16 16 16 16 18 19 20 21 22 22 22 22 21 21 20 20 19 18 17 17 16 15 12 12 11
12 7 12 11 8 10 14 16 11 23 9 12 14 17 16 15 12 14 19 19 16 16 17 17 18 19 21 22 22 22 21 21 20 19 19 19 19 18 17 16 13 13 13 11
5 5 4 6 8 8 16 4 6 10 10 11 13 15 17 12 15 14 14 18 18 18 18 18 17 17 19 21 21 22 22 19 19 19 19 19 18 15 14 16 14 14 13 11
1 5 6 4 3 8 7 10 10 11 10 9 11 14 15 15 14 11 8 17 17 18 17 17 17 18 18 19 19 21 19 20 19 19 19 18 18 16 16 15 14 12 13 10
10 6 6 9 4 9 9 11 15 14 13 10 10 11 13 9 12 10 11 12 15 16 17 17 17 18 18 18 20 19 20 19 19 19 19 16 15 15 14 11 11 10 10 9
5 9 8 9 11 16 10 19 20 18 16 15 15 10 5 12 15 12 9 10 11 13 15 16 17 17 19 20 20 21 21 20 19 19 16 16 14 15 14 12 10 10 11 10
4 4 5 4 11 10 9 18 19 16 17 16 13 13 13 5 7 9 9 8 9 11 12 14 16 16 17 19 20 20 20 21 19 17 15 13 12 12 11 10 6 14 4 10
Wind_Direction
194 203 206 200 214 232 202 207 231 210 165 210 209 204 161 173 173 168 179 179 186 187 163 160 159 162 159 162 152 140 124 125 112 129 114 123 99 85 63 53 47 45 38 38
188 212 206 221 214 228 243 216 219 205 154 197 215 213 158 176 189 182 182 183 182 176 162 167 166 167 169 166 165 148 153 157 163 175 135 85 91 86 85 74 64 54 47 41
203 204 221 214 211 218 234 237 217 193 154 212 234 214 172 169 191 190 183 189 179 176 172 173 174 178 181 179 173 168 168 171 144 132 126 122 118 115 128 97 73 57 58 54
220 216 206 212 221 208 215 224 230 199 171 212 224 222 209 170 200 194 190 194 184 179 178 179 181 182 186 183 183 172 168 159 154 144 106 112 118 122 75 96 84 72 57 61
206 229 200 218 213 196 226 194 226 211 191 231 195 237 224 183 194 197 196 194 190 185 183 181 184 183 185 171 171 171 166 166 156 136 140 139 123 118 115 107 103 98 72 54
222 212 197 226 215 212 225 193 218 218 218 228 235 202 228 206 197 196 197 196 195 189 182 183 183 182 183 173 166 173 173 165 160 149 144 139 142 145 143 128 132 93 89 85
208 214 219 215 214 212 212 188 196 202 211 226 223 218 217 240 200 191 201 197 196 195 184 183 182 181 179 174 172 173 176 165 162 159 152 147 152 149 142 146 137 141 124 108
209 218 200 204 225 200 206 199 206 200 213 210 223 225 232 218 255 194 209 200 196 193 188 189 183 182 181 177 175 178 179 166 165 158 155 153 158 157 152 159 151 148 142 120
205 227 190 207 218 226 199 214 216 216 238 226 210 203 271 215 210 210 208 207 196 183 190 189 184 182 179 178 177 180 179 167 166 164 158 161 170 156 156 151 154 147 134 128
250 259 210 189 205 228 217 209 212 237 224 220 231 199 206 208 231 206 211 206 196 184 186 187 187 180 181 180 174 178 180 169 167 165 165 165 166 163 151 157 152 153 138 124
238 228 215 184 200 208 208 205 220 230 237 229 227 243 171 182 207 223 210 197 204 189 182 184 188 176 182 177 173 176 179 166 167 165 170 165 163 160 161 158 152 144 143 144
219 230 242 200 207 224 213 217 213 217 225 215 234 259 118 211 206 213 212 211 194 197 175 185 185 175 179 177 172 175 176 169 168 169 169 166 163 163 167 157 157 149 151 149
245 223 232 238 207 215 228 209 219 220 206 232 230 234 156 193 215 198 208 193 186 178 176 178 179 176 179 178 176 174 175 171 168 170 166 167 167 168 169 160 156 164 157 156
232 256 227 233 215 212 219 221 213 222 214 209 230 215 165 192 192 179 201 180 184 176 177 178 178 177 181 180 178 174 174 171 170 168 169 167 171 169 168 167 165 167 166 162
282 245 239 234 255 226 218 222 220 224 220 220 211 228 219 195 204 196 188 173 178 179 178 180 180 177 181 180 179 176 174 171 170 170 172 170 172 174 171 169 170 169 172 172
331 257 243 238 235 250 252 223 222 227 228 223 226 230 217 214 210 201 172 179 178 183 181 182 181 180 183 182 180 177 174 171 172 172 175 171 172 173 173 173 175 172 178 173
321 329 261 240 231 238 242 239 215 228 227 227 224 226 234 221 202 178 181 184 183 185 182 183 185 183 183 182 180 178 174 170 174 175 176 173 174 176 175 176 177 177 180 174
292 311 288 252 236 225 239 235 257 240 228 222 232 221 230 203 203 185 196 186 183 183 184 186 184 184 183 179 180 176 174 172 176 177 177 174 176 178 176 179 180 180 180 181
223 277 267 236 228 241 222 225 233 237 247 240 223 228 227 187 204 214 206 189 185 184 183 184 183 182 178 179 178 178 175 175 179 180 180 177 178 179 177 180 180 181 181 183
206 233 260 245 232 223 230 218 222 218 241 236 246 225 191 190 215 212 176 195 189 180 176 178 178 179 179 178 179 180 180 179 183 183 181 178 179 182 180 180 182 181 185 187
199 215 237 228 244 234 8 320 307 212 219 299 256 229 220 201 217 231 177 193 187 173 174 173 177 182 179 178 179 183 184 184 183 183 181 180 181 183 180 179 180 182 187 183
195 192 226 209 209 236 354 354 320 4 328 325 317 223 226 195 221 239 192 178 175 170 169 172 174 179 178 179 181 186 188 178 181 182 183 182 181 183 178 179 180 184 185 184
84 6 319 267 352 328 347 25 9 354 336 334 326 321 301 186 209 208 182 161 175 172 172 174 176 179 179 180 182 190 185 181 181 180 184 183 181 186 180 180 178 181 186 184
347 18 314 341 97 304 0 24 13 7 360 348 327 306 295 208 192 191 164 163 173 174 173 174 176 181 181 183 185 191 185 181 182 180 182 181 182 184 183 180 180 180 183 180
320 329 331 294 1 339 340 352 347 351 9 9 355 340 275 226 209 183 197 178 182 180 172 174 181 184 187 186 188 189 187 180 184 182 179 181 182 185 184 181 182 185 189 185
79 47 337 343 343 309 295 324 314 347 1 14 9 358 359 352 159 166 159 166 181 178 177 180 187 188 188 189 190 190 191 182 183 182 181 178 174 179 179 177 146 41 153 132